View from above orbital plane
|
View from above satellite
|
Ground track
|
The orbit data is extracted from the following two-line orbital elements,
1 27386U 02009A 21019.77514001 .00000010 00000-0 16614-4 0 9998
2 27386 98.1418 21.4854 0001192 86.1483 86.7298 14.38009150989700
Epoch (UTC): | 19 January 2021 18:36:12 |
Eccentricity: | 0.0001192 |
inclination: | 98.1418° |
perigee height: | 764 km |
apogee height: | 766 km |
right ascension of ascending node: | 21.4854° |
argument of perigee: | 86.1483° |
revolutions per day: | 14.38009150 |
mean anomaly at epoch: | 86.7298° |
orbit number at epoch: | 98970 |
The dashed part of the orbit path shows where the satellite is in the earth's shadow,
|
|